| time (UTC) | temp C | wind direction | speed KPH | gust KPH | rain 1hr cm | rain 24hr cm | rain mn cm | humidity % | barometer mb |
| 20260508140703 | 22 | 252 | 9.7 | 19.3 | 0.00 | 0.00 | 0.00 | 40 | 1010.3 |
| 20260508140203 | 22 | 287 | 1.6 | 14.5 | 0.00 | 0.00 | 0.00 | 41 | 1010.4 |
| 20260508133703 | 21 | 218 | 4.8 | 22.5 | 0.00 | 0.00 | 0.00 | 41 | 1010.8 |
| 20260508133203 | 21 | 259 | 16.1 | 24.1 | 0.00 | 0.00 | 0.00 | 41 | 1010.8 |
| 20260508130704 | 21 | 166 | 6.4 | 32.2 | 0.00 | 0.00 | 0.00 | 42 | 1010.9 |
| 20260508130204 | 21 | 239 | 3.2 | 27.4 | 0.00 | 0.00 | 0.00 | 43 | 1011.0 |
| 20260508123703 | 21 | 175 | 8.0 | 19.3 | 0.00 | 0.00 | 0.00 | 43 | 1011.3 |
| 20260508123204 | 21 | 256 | 8.0 | 22.5 | 0.00 | 0.00 | 0.00 | 43 | 1011.2 |
| 20260508120703 | 20 | 226 | 1.6 | 14.5 | 0.00 | 0.00 | 0.00 | 46 | 1011.6 |
| 20260508120204 | 20 | 253 | 11.3 | 22.5 | 0.00 | 0.00 | 0.00 | 46 | 1011.6 |
| 20260508113703 | 20 | 155 | 4.8 | 12.9 | 0.00 | 0.00 | 0.00 | 45 | 1011.6 |
| 20260508113204 | 20 | 234 | 3.2 | 19.3 | 0.00 | 0.00 | 0.00 | 46 | 1011.7 |
| 20260508110703 | 20 | 205 | 6.4 | 16.1 | 0.00 | 0.00 | 0.00 | 45 | 1011.8 |
| 20260508110203 | 20 | 213 | 3.2 | 14.5 | 0.00 | 0.00 | 0.00 | 45 | 1011.9 |
| 20260508103704 | 19 | 231 | 6.4 | 14.5 | 0.00 | 0.00 | 0.00 | 47 | 1012.0 |
| 20260508103203 | 19 | 209 | 1.6 | 19.3 | 0.00 | 0.00 | 0.00 | 48 | 1011.9 |
| 20260508100203 | 18 | 239 | 6.4 | 19.3 | 0.00 | 0.00 | 0.00 | 48 | 1012.2 |
| 20260508093703 | 18 | 260 | 9.7 | 19.3 | 0.00 | 0.00 | 0.00 | 47 | 1012.4 |
| 20260508093203 | 18 | 232 | 4.8 | 20.9 | 0.00 | 0.00 | 0.00 | 55 | 1012.4 |
| 20260508090204 | 17 | 238 | 8.0 | 19.3 | 0.00 | 0.00 | 0.00 | 58 | 1012.5 |
| 20260508083704 | 17 | 251 | 8.0 | 16.1 | 0.00 | 0.00 | 0.00 | 62 | 1012.4 |
| 20260508083204 | 17 | 243 | 8.0 | 20.9 | 0.00 | 0.00 | 0.00 | 64 | 1012.3 |
| 20260508080203 | 16 | 237 | 3.2 | 14.5 | 0.00 | 0.00 | 0.00 | 68 | 1012.2 |
| 20260508073704 | 15 | 233 | 1.6 | 4.8 | 0.00 | 0.00 | 0.00 | 72 | 1012.1 |
| 20260508073203 | 15 | 253 | 0.0 | 4.8 | 0.00 | 0.00 | 0.00 | 72 | 1011.9 |
| 20260508070704 | 15 | 217 | 0.0 | 1.6 | 0.00 | 0.00 | 0.00 | 73 | 1011.8 |
| 20260508070204 | 15 | 217 | 0.0 | 4.8 | 0.00 | 0.00 | 0.00 | 73 | 1011.8 |
| 20260508063704 | 14 | 219 | 0.0 | 3.2 | 0.00 | 0.00 | 0.00 | 76 | 1011.7 |
| 20260508060703 | 13 | 228 | 0.0 | 1.6 | 0.00 | 0.00 | 0.00 | 77 | 1011.6 |
| 20260508060204 | 13 | 229 | 0.0 | 8.0 | 0.00 | 0.00 | 0.00 | 77 | 1011.6 |
| 20260508053703 | 13 | 228 | 1.6 | 4.8 | 0.00 | 0.00 | 0.00 | 78 | 1011.4 |
| 20260508053204 | 13 | 228 | 1.6 | 4.8 | 0.00 | 0.00 | 0.00 | 78 | 1011.3 |
| 20260508050203 | 13 | 228 | 0.0 | 9.7 | 0.00 | 0.00 | 0.00 | 76 | 1010.8 |
| 20260508043704 | 14 | 216 | 3.2 | 4.8 | 0.00 | 0.00 | 0.00 | 75 | 1010.6 |
| 20260508043204 | 14 | 216 | 0.0 | 9.7 | 0.00 | 0.00 | 0.00 | 75 | 1010.6 |
| 20260508040204 | 14 | 207 | 3.2 | 11.3 | 0.00 | 0.00 | 0.00 | 75 | 1010.7 |
| 20260508033203 | 14 | 166 | 1.6 | 9.7 | 0.00 | 0.00 | 0.00 | 75 | 1010.6 |
| 20260508030704 | 14 | 193 | 3.2 | 12.9 | 0.00 | 0.00 | 0.00 | 74 | 1010.8 |
| 20260508030203 | 14 | 188 | 4.8 | 11.3 | 0.00 | 0.00 | 0.00 | 74 | 1010.9 |
| 20260508023204 | 14 | 184 | 4.8 | 14.5 | 0.00 | 0.00 | 0.00 | 74 | 1010.9 |
| 20260508020704 | 14 | 160 | 1.6 | 9.7 | 0.00 | 0.00 | 0.00 | 74 | 1010.9 |
| 20260508020203 | 14 | 186 | 1.6 | 11.3 | 0.00 | 0.00 | 0.00 | 74 | 1011.0 |
| 20260508013704 | 15 | 185 | 4.8 | 11.3 | 0.00 | 0.00 | 0.00 | 74 | 1011.2 |
| 20260508013204 | 15 | 200 | 3.2 | 9.7 | 0.00 | 0.00 | 0.00 | 74 | 1011.2 |
| 20260508010204 | 15 | 181 | 3.2 | 11.3 | 0.00 | 0.00 | 0.00 | 74 | 1011.2 |
| 20260508003704 | 15 | 227 | 1.6 | 4.8 | 0.00 | 0.00 | 0.00 | 74 | 1011.5 |
| 20260508000704 | 15 | 211 | 3.2 | 9.7 | 0.00 | 0.00 | 0.00 | 72 | 1011.4 |
| 20260508000205 | 15 | 224 | 1.6 | 12.9 | 0.00 | 0.00 | 0.00 | 72 | 1011.4 |
| 20260507233704 | 15 | 217 | 1.6 | 8.0 | 0.00 | 0.00 | 0.00 | 71 | 1011.6 |
| 20260507233204 | 15 | 187 | 3.2 | 11.3 | 0.00 | 0.00 | 0.00 | 71 | 1011.5 |
| 20260507230704 | 15 | 238 | 1.6 | 4.8 | 0.00 | 0.00 | 0.00 | 71 | 1011.7 |
| 20260507230203 | 15 | 221 | 0.0 | 8.0 | 0.00 | 0.00 | 0.00 | 71 | 1011.8 |
| 20260507223704 | 15 | 216 | 1.6 | 4.8 | 0.00 | 0.00 | 0.00 | 70 | 1012.0 |
| 20260507223204 | 15 | 176 | 1.6 | 14.5 | 0.00 | 0.00 | 0.00 | 70 | 1012.1 |
| 20260507220204 | 16 | 239 | 0.0 | 4.8 | 0.00 | 0.00 | 0.00 | 66 | 1012.1 |
| 20260507213704 | 16 | 244 | 0.0 | 8.0 | 0.00 | 0.00 | 0.00 | 64 | 1012.0 |
| 20260507213204 | 16 | 244 | 0.0 | 9.7 | 0.00 | 0.00 | 0.00 | 63 | 1012.1 |
| 20260507210704 | 16 | 260 | 3.2 | 9.7 | 0.00 | 0.00 | 0.00 | 62 | 1011.9 |
| 20260507203704 | 16 | 296 | 3.2 | 12.9 | 0.00 | 0.00 | 0.00 | 61 | 1011.5 |
| 20260507203204 | 16 | 281 | 0.0 | 11.3 | 0.00 | 0.00 | 0.00 | 61 | 1011.5 |
| 20260507200704 | 16 | 261 | 6.4 | 14.5 | 0.00 | 0.00 | 0.00 | 60 | 1011.6 |
| 20260507200204 | 16 | 262 | 8.0 | 19.3 | 0.00 | 0.00 | 0.00 | 61 | 1011.6 |
| 20260507193204 | 17 | 264 | 4.8 | 19.3 | 0.00 | 0.00 | 0.00 | 60 | 1011.4 |
| 20260507190705 | 17 | 249 | 8.0 | 16.1 | 0.00 | 0.00 | 0.00 | 57 | 1011.1 |
| 20260507190204 | 17 | 258 | 11.3 | 27.4 | 0.00 | 0.00 | 0.00 | 57 | 1011.0 |
| 20260507183704 | 18 | 248 | 11.3 | 24.1 | 0.00 | 0.00 | 0.00 | 53 | 1010.7 |
| 20260507183204 | 18 | 260 | 8.0 | 27.4 | 0.00 | 0.00 | 0.00 | 52 | 1010.6 |
| 20260507180704 | 19 | 253 | 14.5 | 24.1 | 0.00 | 0.00 | 0.00 | 50 | 1010.2 |
| 20260507180204 | 20 | 252 | 14.5 | 29.0 | 0.00 | 0.00 | 0.00 | 49 | 1010.2 |
| 20260507173704 | 20 | 258 | 14.5 | 27.4 | 0.00 | 0.00 | 0.00 | 48 | 1009.9 |
| 20260507173204 | 20 | 249 | 8.0 | 29.0 | 0.00 | 0.00 | 0.00 | 49 | 1009.9 |
| 20260507170704 | 21 | 242 | 12.9 | 20.9 | 0.00 | 0.00 | 0.00 | 45 | 1009.7 |
| 20260507170204 | 21 | 263 | 12.9 | 24.1 | 0.00 | 0.00 | 0.00 | 45 | 1009.6 |
| 20260507163704 | 21 | 268 | 8.0 | 24.1 | 0.00 | 0.00 | 0.00 | 41 | 1009.4 |
| 20260507160704 | 22 | 234 | 9.7 | 32.2 | 0.00 | 0.00 | 0.00 | 43 | 1009.3 |
| 20260507160205 | 22 | 247 | 8.0 | 25.7 | 0.00 | 0.00 | 0.00 | 42 | 1009.3 |
| 20260507153204 | 22 | 238 | 4.8 | 27.4 | 0.00 | 0.00 | 0.00 | 38 | 1009.3 |
| 20260507150704 | 22 | 230 | 4.8 | 20.9 | 0.00 | 0.00 | 0.00 | 41 | 1009.4 |
| 20260507150204 | 22 | 243 | 4.8 | 24.1 | 0.00 | 0.00 | 0.00 | 37 | 1009.4 |
| 20260507143704 | 22 | 236 | 4.8 | 20.9 | 0.00 | 0.00 | 0.00 | 41 | 1009.6 |